Regional Weather Roundup
Issued by NWS

Home | Current Version | Previous Version | Text Only | Print | Product List | Glossary On
Versions: 1 2 3 4 5 6 7 8 9 10 11 12 13 14 15 16 17 18 19 20 21 22 23 24 25 26 27 28 29 30 31 32 33 34 35 36 37 38 39 40 41 42 43 44 45 46 47 48 49 50
000
ASUS43 KDTX 242010
RWRMI
MICHIGAN HOURLY REGIONAL WEATHER ROUNDUP
NATIONAL WEATHER SERVICE DETROIT/PONTIAC MI
300 PM EST FRI FEB 24 2017

NOTE: "FAIR" INDICATES FEW OR NO CLOUDS BELOW 12,000 FEET WITH NO
SIGNIFICANT WEATHER AND/OR OBSTRUCTION TO VISIBILITY.

MIZ047>049-052>055-059>063-066>070-074>076-081>083-242100-
SOUTHEAST LOWER MICHIGAN

CITY           SKY/WX    TMP DP  RH WIND       PRES   REMARKS
ADRIAN         CLOUDY    67  55  65 W13G25    29.53R THUNDER
ALMA           FOG       38  38  99 NE13      29.51F VSB 3/4 WCI  31
ANN ARBOR      TSTM      64  58  80 SW14      29.53R
BAD AXE        FOG       40  40 100 NE6       29.55F VSB 3/4
CARO           CLOUDY    44  43  99 CALM      29.51F FOG
DETROIT CITY   MOSUNNY   67  56  67 SW10      29.52F
DETROIT        CLOUDY    69  55  60 S14       29.51F THUNDER
FLINT          CLOUDY    49  47  93 E3        29.51S FOG
GROSSE ILE     MOSUNNY   54  47  77 S7        29.51R
HILLSDALE      CLOUDY    59  52  77 S14G20    29.46F
HOWELL         CLOUDY    57  53  85 E3        29.49S

CITY           SKY/WX    TMP DP  RH WIND       PRES   REMARKS
JACKSON        CLOUDY    65  54  67 S7        29.44F
LAMBERTVILLE   CLOUDY    71  55  56 S13G18    29.50S
LANSING        LGT RAIN  46  43  89 NE7       29.48F FOG
LAPEER         CLOUDY    53  51  93 CALM      29.51F FOG
MASON          RAIN      52  51  97 E3        29.48F
MONROE         PTSUNNY   70  56  62 SW17G28   29.50R
MT. CLEMENS    CLOUDY    54  54  98 CALM      29.51F
PONTIAC        CLOUDY    61  54  77 SE5       29.49F
PORT HOPE        N/A     37  36  96 E12       29.56F WCI  29
PORT HURON     CLOUDY    63  55  77 MISG      29.50F
TRI CITIES     FOG       38  38 100 NE14      29.53F VSB 1/2 WCI  30
MIDLAND        CLOUDY    38  37  94 NE10      29.53F FOG     WCI  31
TROY           CLOUDY    66  55  68 S8        29.54R
SAGINAW HB     CLOUDY    41  37  87 NE9       29.52F FOG
$$
MIZ043>046-050>051-056>058-064>065-071>073-077>080-242100-
SOUTHWEST LOWER MICHIGAN

CITY           SKY/WX    TMP DP  RH WIND       PRES   REMARKS
BATTLE CREEK   CLOUDY    51  50  96 E3        29.46F FOG
BENTON HARBOR  LGT RAIN  55  53  93 W5        29.41F VSB 1
BIG RAPIDS     CLOUDY    36  34  94 E9        29.48F FOG     WCI  29
COLDWATER      CLOUDY    64  56  76 SE3       29.46F
FREMONT        RAIN      37  37 100 E10       29.44F WCI  30
HOLLAND        CLOUDY    42  40  92 E9        29.44F FOG
GRAND RAPIDS   LGT RAIN  40  38  93 E12       29.44F FOG     WCI  33
IONIA          LGT RAIN  38  38  98 E7        29.47F WCI  33
KALAMAZOO      CLOUDY    53  49  86 CALM      29.45F FOG
LUDINGTON      CLOUDY    36  36 100 NE6       29.47F FOG     WCI  31
MARSHALL       CLOUDY    62  58  86 S8        29.44F
MOUNT PLEASANT CLOUDY    38  37  99 NE7       29.51F FOG     WCI  32
MUSKEGON       FOG       39  38  96 E9        29.44F VSB 1   WCI  33
SOUTH HAVEN    RAIN      50  50  99 E3        29.42S
$$
MIZ016>042-242100-
NORTHERN LOWER MICHIGAN

CITY           SKY/WX    TMP DP  RH WIND       PRES   REMARKS
ALPENA         CLOUDY    34  34 100 E17G28    29.63F FOG     WCI  23
BEAVER ISLAND  CLOUDY    30  28  92 E16G25    29.60F WCI  18
BELLAIRE       CLOUDY    36  32  88 E8        29.56F WCI  29
CADILLAC       LGT SNOW  33  32  96 E18G26    29.49F WCI  22
CHARLEVOIX     CLOUDY    33  32  93 E17G24    29.62F FOG     WCI  23
FRANKFORT      CLOUDY    33  32  96 NE6       29.52F FOG     WCI  28
GAYLORD        CLOUDY    34  30  85 E8G21     29.55F FOG     WCI  27
GRAYLING       CLOUDY    34  33  95 E15G29    29.55F FOG     WCI  24
HARBOR SPRINGS LGT SNOW  32  30  92 E23G32    29.60S WCI  19
HOUGHTON LAKE  TSTM      34  32  92 E12       29.52F FOG     WCI  25
MANISTEE       CLOUDY    33  32  96 NE9       29.49F WCI  25
OSCODA         CLOUDY    36  35  96 NE12      29.58F WCI  28
PELLSTON       LGT SNOW  31  27  85 E16G29    29.64F FOG     WCI  20
ROGERS CITY    FOG       32  31  96 E14G21    29.66F VSB 1   WCI  22
TRAVERSE CITY  CLOUDY    35  35 100 NE6       29.54F FOG     WCI  30
$$
MIZ007>008-015-242100-
EASTERN UPPER MICHIGAN

CITY           SKY/WX    TMP DP  RH WIND       PRES   REMARKS
KINROSS        CLOUDY    29  24  82 E15       29.69F WCI  18
MACKINAC ISLAN CLOUDY    29  26  92 E21G35    29.64F FOG     WCI  15
NEWBERRY       CLOUDY    27  26  96 N14       29.66F FOG     WCI  15
S. S. MARIE    CLOUDY    31  21  66 E9G21     29.69F WCI  23
MUNISING         N/A     25  23  92 N18       29.73F WCI  11
$$
MIZ004>006-011>014-085-242100-
CENTRAL UPPER MICHIGAN

CITY           SKY/WX    TMP DP  RH WIND       PRES   REMARKS
MANISTIQUE     MIX PCPN  26  26  98 N13       29.67F WCI  15
ESCANABA       LGT SNOW  26  23  88 N12G21    29.68F VSB 1   WCI  16
MENOMINEE      MIX PCPN  28  25  88 NE16      29.63F FOG     WCI  16
SAWYER-GWINN   SNOW      21  19  93 N20G26    29.71F VSB 1/2 WCI   6
$$
MIZ001>003-009>011-084-242100-
WESTERN UPPER MICHIGAN

CITY           SKY/WX    TMP DP  RH WIND       PRES   REMARKS
IRON MOUNTAIN  MIX PCPN  24  18  77 N18G26    29.67S WCI  10
HOUGHTON       LGT SNOW  19  12  74 N15       29.81F WCI   5
COPPER HARBOR    N/A     21  16  81 E16G25    29.85F WCI   7
IRONWOOD       LGT SNOW  21  16  81 N13G22    29.81F WCI   9
$$

ABBREVIATIONS USED IN REMARKS
   TC - TEMPERATURE IN CELSIUS
  WCI - WIND CHILL INDEX
   HX - HEAT INDEX
  VSB - VISIBILITY





USA.gov is the U.S. government's official web portal to all federal, state and local government web resources and services.